Delaware County Regional (MIE)

 

Airport Diagram
Current Weather/Forecast (MVFR Conditions)
METAR KMIE 071153Z 26003KT 5SM BR SCT065 06/04 A3003 RMK AO2 SLP168 70018 T00560039 10067 20033 51007
TAF

Airport Information

All Charts
General
Chart Name View
AIRPORT DIAGRAM
TAKEOFF MINIMUMS
ALTERNATE MINIMUMS
LAHSO

Approaches
Chart Name Download
ILS OR LOC RWY 32
RNAV (GPS) RWY 03
RNAV (GPS) RWY 14
RNAV (GPS) RWY 21
RNAV (GPS) RWY 32
VOR RWY 14
VOR RWY 21


Airport Statistics
Departures Arrivals Local
All Collected Stats since June 2016: 38 25 2
2021 Stats: 7 3 0
May Stats: 0 0 0

Inbound Traffic (Arrivals) - 0

No inbound traffic.


Outbound Traffic (Departures) - 0

No outbound traffic.


Local Traffic (Pattern) - 0

No local traffic.